User: anonymous   Login
Location: Oshawa
(43.9000°N, 78.8670°W)
Time: 01:33:47
(UTC-04:00)
Language:

Iridium 54 - Orbit

View from above orbital plane
View from above orbital plane
View from above satellite
View from above satellite

Ground track
Ground track

The orbit data is extracted from the following two-line orbital elements,

1 25171U 98010C   14297.37526463  .00000730  00000-0  25368-3 0  9664
2 25171 086.4000 034.4981 0002258 110.4360 249.7078 14.34217000873352
Epoch (UTC): 24 October 2014 09:00:22
Eccentricity: 0.0002258
inclination: 86.4000°
perigee height: 776 km
apogee height: 779 km
right ascension of ascending node: 34.4981°
argument of perigee: 110.4360°
revolutions per day: 14.34217000
mean anomaly at epoch: 249.7078°
orbit number at epoch: 87335

The dashed part of the orbit path shows where the satellite is in the earth's shadow,  

DLR